TimePST,TemperatureF,Dew PointF,Humidity,Sea Level PressureIn,VisibilityMPH,Wind Direction,Wind SpeedMPH,Gust SpeedMPH,PrecipitationIn,Events,Conditions,WindDirDegrees,DateUTC
12:56 AM,48.9,23.0,36,30.33,10.0,NE,9.2,-,N/A,,Clear,50,2013-02-15 08:56:00
1:56 AM,45.9,23.0,41,30.34,10.0,Calm,Calm,-,N/A,,Clear,0,2013-02-15 09:56:00
2:56 AM,43.9,23.0,44,30.35,10.0,Calm,Calm,-,N/A,,Clear,0,2013-02-15 10:56:00
3:56 AM,41.9,24.1,49,30.35,10.0,Calm,Calm,-,N/A,,Clear,0,2013-02-15 11:56:00
4:56 AM,37.9,23.0,55,30.37,10.0,Calm,Calm,-,N/A,,Clear,0,2013-02-15 12:56:00
5:56 AM,36.9,23.0,57,30.40,10.0,Calm,Calm,-,N/A,,Clear,0,2013-02-15 13:56:00
6:56 AM,37.9,23.0,55,30.41,10.0,Calm,Calm,-,N/A,,Clear,0,2013-02-15 14:56:00
7:56 AM,43.9,25.2,48,30.44,10.0,Calm,Calm,-,N/A,,Clear,0,2013-02-15 15:56:00
8:56 AM,50.9,22.1,32,30.44,10.0,Calm,Calm,-,N/A,,Clear,0,2013-02-15 16:56:00
9:56 AM,54.9,22.1,28,30.44,10.0,ENE,5.8,-,N/A,,Clear,60,2013-02-15 17:56:00
10:56 AM,57.9,20.1,23,30.43,10.0,NE,9.2,-,N/A,,Clear,40,2013-02-15 18:56:00
11:56 AM,61.0,19.0,20,30.40,10.0,NNE,9.2,-,N/A,,Clear,30,2013-02-15 19:56:00
12:56 PM,61.9,19.0,19,30.38,10.0,NE,8.1,-,N/A,,Clear,50,2013-02-15 20:56:00
1:56 PM,63.9,18.1,17,30.36,10.0,ENE,6.9,-,N/A,,Clear,70,2013-02-15 21:56:00
3:56 PM,66.2,15.8,14,30.33,10.0,NNE,10.4,-,N/A,,Clear,20,2013-02-15 23:56:00
4:56 PM,63.9,17.1,16,30.34,10.0,Calm,Calm,-,N/A,,Clear,0,2013-02-16 00:56:00
5:56 PM,59.9,18.1,20,30.35,10.0,Calm,Calm,-,N/A,,Clear,0,2013-02-16 01:56:00
6:56 PM,53.6,19.4,26,30.35,10.0,SSE,6.9,-,N/A,,Clear,150,2013-02-16 02:56:00
7:56 PM,50.0,21.0,32,30.38,10.0,SSE,8.1,-,N/A,,Clear,150,2013-02-16 03:56:00
8:56 PM,47.8,19.0,32,30.39,10.0,SSE,10.4,-,N/A,,Clear,150,2013-02-16 04:56:00
9:56 PM,45.9,19.0,34,30.39,10.0,Calm,Calm,-,N/A,,Clear,0,2013-02-16 05:56:00
10:56 PM,43.9,19.0,37,30.40,10.0,Calm,Calm,-,N/A,,Clear,0,2013-02-16 06:56:00
11:56 PM,43.0,20.1,40,30.39,10.0,Calm,Calm,-,N/A,,Clear,0,2013-02-16 07:56:00